Location: Aabo
(56.1241°N, 10.0419°E)
Time: 08:05:45
(UTC+00:00)

Daily predictions for brighter satellites

Satellite Brightness Start Highest point End
(mag) Time Altitude Azimuth Time Altitude Azimuth Time Altitude Azimuth
SL-8 Rocket 4.2 15:22:14 10° N 15:28:22 53° ENE 15:34:31 10° SSE
Cosmos 1980 3.8 15:23:50 10° SW 15:29:33 86° NW 15:35:17 10° NE
Cosmos 1842 Rocket 4.1 15:26:09 10° SSW 15:30:26 60° WNW 15:34:47 10° N
ALOS 3.8 15:26:21 10° SSW 15:30:45 40° W 15:35:11 10° NNW
Cosmos 389 Rocket 2.8 15:27:53 10° S 15:31:09 46° E 15:34:27 10° NNE
Meteor 1-31 Rocket 3.9 15:28:50 10° S 15:32:39 50° W 15:36:27 10° NNW
Spot 2 4.5 15:29:14 10° SSE 15:34:05 63° ENE 15:39:10 10° NNW
Cosmos 1666 Rocket 3.6 15:30:08 10° N 15:34:34 64° ENE 15:39:00 10° SSE
Cosmos 2221 3.1 15:30:34 10° SSW 15:34:49 59° WNW 15:39:05 10° N
H-2A R/B 3.7 15:33:45 10° ENE 15:35:36 12° NE 15:37:26 10° NNE
H-2A R/B 2.8 15:35:03 10° SSE 15:38:54 65° ENE 15:42:49 10° N
Cosmos 1656 Rocket 3.8 15:37:32 10° NNW 15:43:08 57° NE 15:48:37 10° SE
PSLV R/B 3.9 15:39:07 10° SSE 15:43:08 63° ENE 15:47:05 10° N
Cosmos 2084 Rocket 4.4 15:39:32 10° WNW 15:43:24 33° N 15:47:23 10° ENE
Cosmos 2056 Rocket 4.4 15:38:58 10° NNW 15:43:33 29° NE 15:48:11 10° ESE
Cosmos 2341 Rocket 4.0 15:38:11 10° N 15:44:32 80° ENE 15:50:54 10° SSE
CZ-2C R/B 4.3 15:41:45 10° E 15:44:35 16° NE 15:47:24 10° NNE
Meteor 1-4 Rocket 3.9 15:43:22 10° SE 15:46:04 21° E 15:48:45 10° NE
H-2A R/B 3.3 15:43:58 10° NE 15:47:24 23° E 15:50:52 10° SSE
Meteor 1-28 Rocket 4.1 15:45:10 10° N 15:48:49 47° WNW 15:52:26 10° SW
Cosmos 1666 4.3 15:47:01 10° NNE 15:49:20 15° ENE 15:51:38 10° E
Cosmos 2285 Rocket 4.5 15:45:52 10° NNW 15:52:15 69° WSW 15:58:32 10° SSE
Cosmos 2322 Rocket 3.9 15:49:42 10° WNW 15:53:54 21° NNW 15:58:06 10° NNE
Landsat 5 4.4 15:50:39 10° NNE 15:54:46 35° E 15:58:55 10° SSE
Cosmos 1500 4.1 15:51:37 10° N 15:54:55 27° ENE 15:58:13 10° SE
Cosmos 1633 Rocket 3.0 15:50:42 10° N 15:55:07 80° ENE 15:59:28 10° SSE
Cosmos 1606 2.7 15:52:03 10° S 15:55:55 78° E 15:59:48 10° NNE
Envisat 3.0 15:51:18 10° SSE 15:56:23 78° ENE 16:01:30 10° NNW
Cosmos 773 Rocket 4.4 15:51:36 10° S 15:56:39 48° ESE 16:01:45 10° NE
USA 281 3.9 15:51:12 10° E 15:56:53 33° NE 16:02:35 10° NNW
NOAA 6 4.0 15:52:15 10° SSE 15:57:23 79° ENE 16:02:32 10° NNW
Meteor 1-14 Rocket 4.5 15:51:53 10° N 15:57:47 56° ENE 16:03:40 10° SSE
Cosmos 1939 Rocket 4.0 15:56:13 10° ESE 15:59:18 22° ENE 16:02:26 10° N
Cosmos 1697 Rocket 4.1 15:56:44 10° NNW 16:00:52 20° NNE 16:04:22 12° NE
Meteor 1-25 Rocket 4.3 15:58:32 10° NNW 16:04:14 87° WSW 16:09:58 10° S
Cosmos 1782 3.6 16:01:04 10° SSE 16:04:35 31° E 16:08:10 10° NNE
SL-16 R/B 2.2 15:59:06 10° SSW 16:04:44 72° ESE 16:10:24 10° NE
SL-16 R/B 4.0 16:00:48 10° N 16:06:13 32° NW 16:11:36 10° WSW
Cosmos 371 Rocket 3.8 16:03:21 10° NNW 16:07:58 39° NE 16:12:32 10° ESE
Cosmos 1869 Rocket 4.5 16:04:56 10° N 16:08:47 27° ENE 16:12:36 10° ESE
CZ-4 R/B 2.9 16:07:16 10° E 16:10:00 18° NE 16:12:46 10° NNE
Cosmos 2181 Rocket 4.1 16:04:53 10° S 16:11:08 61° E 16:17:20 10° NNE
Helios 1A Rocket 4.3 16:11:13 13° E 16:13:21 18° NE 16:16:06 10° N
Okean O Rocket 1.6 16:13:28 10° SSE 16:17:49 65° ENE 16:22:13 10° NNW
Cosmos 1867 3.7 16:12:30 10° SW 16:17:58 77° NW 16:22:38 15° NE
SMAP 3.0 16:14:23 10° SSE 16:19:02 75° ENE 16:23:42 10° NNW
CZ-4C R/B 3.2 16:16:11 10° NNE 16:19:47 54° E 16:23:19 10° S
NOAA 12 4.1 16:15:46 10° SSE 16:21:05 78° ENE 16:26:25 10° NNW
CORIOLIS 4.1 16:16:35 10° SSE 16:22:00 73° ENE 16:27:28 10° NNW
CRYOSAT 2 4.3 16:17:52 10° N 16:22:48 82° E 16:27:43 10° S
SL-08 R/B 4.2 16:18:36 10° N 16:23:19 50° WNW 16:27:56 10° SW
Cosmos 1933 3.3 16:19:52 10° S 16:23:57 87° E 16:28:04 10° NNE
Cosmos 2263 4.5 16:19:31 10° NW 16:25:08 74° WSW 16:30:43 10° SSE
Lacrosse 5 rocket 1.0 16:21:51 10° WSW 16:25:29 75° SSE 16:27:42 22° ENE
Cosmos 2360 Rocket 3.9 16:22:45 10° WNW 16:26:53 20° NNW 16:30:54 11° NNE
FengYun 1-2 T 4.2 16:21:27 10° SSE 16:26:54 67° ENE 16:32:21 10° NNW
Okean-O 3.6 16:23:17 10° ESE 16:26:55 25° ENE 16:30:33 10° N
Cosmos 2219 Rocket 3.7 16:22:14 10° W 16:27:02 27° NNW 16:31:49 10° NNE
Cosmos 1151 Rocket 2.9 16:23:44 10° S 16:27:59 77° E 16:32:16 10° NNE
ADEOS Rocket 3.6 16:21:54 10° NNE 16:29:45 87° ESE 16:37:27 10° SSW
USA 267 3.3 16:23:59 13° E 16:29:54 84° N 16:36:29 10° W
SL-08 R/B 4.4 16:24:28 10° N 16:30:38 72° ENE 16:36:44 10° SSE
Lacrosse 4 Rocket 3.3 16:29:58 10° SE 16:31:32 13° ESE 16:31:32 13° ESE
Cosmos 2366 rocket 4.1 16:26:06 10° NNW 16:32:19 79° W 16:38:27 10° S
ISS -1.8 16:30:30 10° WSW 16:33:23 27° SSW 16:36:16 10° SE
Cosmos 2218 Rocket 4.3 16:30:59 10° NNW 16:37:08 72° W 16:43:15 10° S
TIMED 4.4 16:33:19 10° SSW 16:37:40 74° ESE 16:41:00 17° NNE
BREEZE-M DEB (TANK) 4.2 16:38:58 10° S 16:39:40 11° SSE 16:40:11 10° SSE
Cosmos 1943 Rocket 4.1 16:36:16 10° NW 16:41:07 32° WSW 16:45:59 10° SSW
Cosmos 2333 Rocket 3.8 16:37:04 10° WNW 16:41:40 25° NNW 16:45:52 12° NNE
Cosmos 1470 Rocket 4.0 16:37:22 10° NNW 16:41:41 65° W 16:45:57 10° S
Cosmos 1980 Rocket 3.6 16:38:09 10° NNW 16:42:16 20° NNE 16:44:06 18° NE
Cosmos 1812 3.5 16:39:45 10° SSE 16:43:08 30° E 16:43:52 28° ENE
YAOGAN 1 3.4 16:41:41 19° ESE 16:43:52 29° ENE 16:47:37 10° N
OPS 6432 4.3 16:41:13 10° SW 16:44:59 81° SE 16:46:15 34° ENE
GEOS 3 Rocket 4.1 16:41:02 18° NE 16:45:04 59° NNW 16:50:19 10° WSW
Cosmos 332 Rocket 3.9 16:40:31 10° NNW 16:45:14 50° NE 16:49:54 10° SE
ERS-2 3.3 16:45:51 25° ESE 16:45:51 25° ESE 16:48:37 10° SSE
H-2A R/B 3.7 16:43:28 10° S 16:47:23 43° W 16:51:12 10° NNW
Feng Yun 1-1 Rocket 4.2 16:42:03 10° SSE 16:47:39 68° ENE 16:53:08 10° NNW
X-37B 3.4 16:46:56 10° SSW 16:48:08 12° S 16:49:21 10° SSE
CENTAUR R/B 3.6 16:43:19 10° SSE 16:48:13 26° ESE 16:50:21 22° E
YAOGAN 6 4.0 16:45:57 10° S 16:49:20 40° W 16:52:43 10° NNW
Cosmos 2239 Rocket 4.4 16:43:23 10° N 16:49:31 62° ENE 16:55:40 10° SSE
COSMOS 2428 4.3 16:45:05 10° W 16:49:50 26° NNW 16:54:00 12° NNE
Cosmos 1461 4.5 16:46:35 10° SSE 16:50:11 22° ESE 16:50:43 22° ESE
NOAA 11 4.2 16:47:36 10° SSE 16:53:03 88° WSW 16:58:34 10° NNW
Cosmos 2237 Rocket 3.4 16:47:56 10° WSW 16:53:07 36° NW 16:57:41 13° NNE
Cosmos 1515 Rocket 3.5 16:49:00 10° S 16:53:23 74° E 16:57:41 11° NNE
ARGOS 3.9 16:53:15 25° E 16:54:44 29° NE 16:59:19 10° N
Cosmos 2369 Rocket 3.7 16:50:05 10° NW 16:55:18 38° WSW 17:00:29 10° S
Cosmos 1238 Rocket 3.0 16:51:43 10° N 16:55:47 66° ENE 17:00:45 10° SSE
Meteor 2-6 Rocket 4.2 16:53:37 10° S 16:58:55 52° E 17:03:28 14° NNE
CZ-4B R/B 3.8 16:53:43 10° S 16:58:55 57° WSW 17:04:10 10° NNW
COSMO-SKYMED 1 3.2 16:58:59 32° E 16:59:17 32° E 17:03:13 10° SSE
SL-16 R/B 3.9 16:55:49 10° NW 16:59:42 18° N 17:01:39 16° NNE
Cosmos 1943 3.4 16:54:25 10° S 16:59:54 53° ESE 17:02:57 26° NE
Cosmos 1603 3.7 16:55:21 10° SSW 17:00:51 58° ESE 17:03:59 26° NE
Cosmos 1934 Rocket 4.0 17:01:05 10° N 17:07:24 60° ENE 17:13:38 10° SSE
Cosmos 1328 Rocket 4.2 17:04:15 10° SSW 17:08:32 54° WNW 17:12:52 10° N
Cosmos 1680 Rocket 3.9 17:04:25 10° S 17:09:22 42° ESE 17:10:55 34° ENE
CZ-4B R/B 1.9 17:10:42 41° SE 17:10:42 41° SE 17:13:08 10° S
Cosmos 1536 3.0 17:06:17 10° N 17:10:11 46° ENE 17:10:28 45° E
NOSS 3-2 (C) 4.2 17:05:22 10° S 17:10:22 31° ESE 17:11:35 29° E
MOS 1 Rocket 4.5 17:12:57 29° ESE 17:12:57 29° ESE 17:16:48 10° SSE
Meteor 1-5 Rocket 4.4 17:06:39 10° NNW 17:12:35 77° W 17:18:17 10° S
Cosmos 304 Rocket 3.7 17:08:04 10° NNW 17:12:54 63° ENE 17:16:03 21° SE
H-2A R/B 2.3 17:10:51 21° SE 17:13:55 44° ENE 17:18:41 10° N
CZ-2D R/B 3.1 17:11:38 10° SSE 17:15:28 72° ENE 17:19:20 10° NNW
Meteor 1-11 Rocket 3.7 17:11:48 10° NNW 17:17:38 81° ENE 17:23:34 10° SSE
Cosmos 1371 Rocket 4.1 17:15:13 10° NNW 17:20:26 77° WSW 17:25:39 10° SSE
Meteor 1-4 Rocket 3.7 17:17:29 10° SW 17:20:52 41° WNW 17:23:10 18° N
Cosmos 1538 Rocket 4.2 17:15:32 10° SW 17:20:56 74° WNW 17:24:33 22° NNE
Cosmos 2084 Rocket 3.8 17:19:28 10° NW 17:23:38 47° NNE 17:23:59 46° NE
H-2A R/B 2.6 17:20:07 14° N 17:23:41 57° WNW 17:27:56 10° SW
CZ-2C R/B 2.7 17:18:56 10° SSE 17:23:44 69° ENE 17:28:28 10° NNW
Cosmos 1666 2.7 17:21:36 10° NNW 17:25:28 83° W 17:29:19 10° S
Cosmos 2056 Rocket 3.6 17:20:57 10° NNW 17:26:16 78° WSW 17:31:38 10° SSE
Cosmos 2228 Rocket 3.0 17:22:23 10° S 17:26:54 79° E 17:28:59 31° NNE
Cosmos 1821 Rocket 4.3 17:24:29 10° NNW 17:30:43 69° W 17:37:01 10° S
Cosmos 2112 Rocket 4.1 17:26:05 10° S 17:31:14 53° ESE 17:32:04 48° ENE
Nadezhda 3 Rocket 3.9 17:25:31 10° S 17:31:53 81° E 17:38:16 10° NNE
NOSS 3-2 (A) 3.5 17:26:53 10° SSW 17:32:36 57° SE 17:34:34 41° ENE
Cosmos 1939 Rocket 3.4 17:30:03 10° S 17:33:55 57° W 17:37:54 10° NNW
Cosmos 1452 Rocket 3.5 17:33:36 10° NNW 17:38:52 61° ENE 17:39:40 54° E
Cosmos 2322 Rocket 3.8 17:36:07 10° NW 17:40:06 19° N 17:40:34 19° NNE
USA 281 3.1 17:34:13 10° SE 17:40:47 85° ENE 17:47:25 10° NNW
Cosmos 1782 4.4 17:37:12 10° SW 17:40:52 35° WNW 17:44:06 13° N
Cosmos 1624 Rocket 4.5 17:36:48 10° NNW 17:42:03 61° WSW 17:47:12 10° S
Cosmos 1437 Rocket 4.3 17:40:06 10° S 17:41:51 25° S 17:41:51 25° S
IRS-1C Rocket 4.5 17:39:00 10° S 17:44:15 64° WSW 17:49:32 10° NNW
CZ-4 R/B 1.3 17:42:47 34° SSE 17:44:30 84° WSW 17:48:40 10° NNW
Cosmos 1697 Rocket 3.3 17:41:05 10° NNW 17:46:07 39° NNE 17:46:07 39° NNE
Cosmos 1869 Rocket 4.4 17:42:34 10° NNW 17:46:56 51° W 17:51:15 10° S
SJ-11-01 4.1 17:46:48 69° E 17:47:04 71° ENE 17:51:50 10° NNW
SKYMED 2 3.4 17:47:36 82° ESE 17:47:36 82° ESE 17:51:57 10° SSW
Helios 1A Rocket 2.9 17:47:27 63° S 17:48:02 81° WSW 17:52:06 10° NNW
Cosmos 371 Rocket 4.4 17:43:50 10° NW 17:48:30 45° WSW 17:53:07 10° S
SL-16 R/B 3.4 17:44:07 10° WSW 17:49:20 36° NW 17:52:19 22° NNE
Cosmos 158 Rocket 3.7 17:45:32 10° SSW 17:50:27 86° WNW 17:51:24 59° NNE
Cosmos 1420 Rocket 4.1 17:48:51 10° NNW 17:54:05 77° WSW 17:56:58 27° SSE
USA 238 DEB 3.6 17:47:57 10° SW 17:54:32 67° SE 17:56:08 52° ENE
Okean O Rocket 4.2 17:51:14 10° SW 17:54:36 21° W 17:58:00 10° NW
USA 238 3.6 17:48:03 10° SW 17:54:38 67° SE 17:56:13 52° ENE
Meteor 1-27 Rocket 3.5 17:53:37 10° S 17:59:09 75° E 18:00:15 57° NE
Cosmos 1656 3.6 17:54:43 10° NNW 18:00:24 65° NE 18:00:25 65° NE
Cosmos 1733 Rocket 4.1 17:56:27 10° NNW 17:59:10 36° N 17:59:10 36° N
Okean-O 3.1 17:58:43 10° S 18:03:06 60° WSW 18:07:31 10° NNW
SeaSat 1 4.5 18:05:02 16° N 18:05:02 16° N 18:07:07 10° NNW
Lacrosse 5 rocket 2.4 18:01:02 10° W 18:03:20 37° WNW 18:03:20 37° WNW
Meteor 1-10 Rocket 4.4 18:01:51 10° SSW 18:07:25 68° WNW 18:10:56 23° N
CSL-04 Debris 4.1 18:05:56 31° SSE 18:08:42 86° WSW 18:14:13 10° NNW
Lacrosse 4 Rocket 2.8 18:05:42 10° SSW 18:07:52 30° SSW 18:07:52 30° SSW
Cosmos 1153 Rocket 4.3 18:06:09 10° N 18:12:22 72° ENE 18:12:43 70° ESE
Cosmos 2219 Rocket 4.0 18:09:08 10° NW 18:12:55 18° N 18:13:32 18° N
Cosmos 2360 Rocket 4.0 18:09:04 10° NW 18:12:39 19° N 18:12:39 19° N
USA 267 3.3 18:11:20 51° SE 18:13:05 74° SSW 18:19:40 10° WNW
ATLAS 3B R/B 4.4 18:11:02 10° S 18:12:26 16° SSE 18:12:26 16° SSE
Cosmos 1605 Rocket 4.0 18:11:53 10° NNW 18:17:59 76° W 18:24:05 10° S
CSL-04 Rocket 3.6 18:17:20 59° S 18:18:21 78° WSW 18:23:40 10° NNW
Cosmos 1812 4.3 18:15:24 10° SW 18:18:54 33° WNW 18:18:59 33° WNW
ERS-2 4.0 18:20:26 30° WSW 18:20:26 30° WSW 18:22:39 10° SW
YAOGAN 1 3.4 18:18:51 41° SW 18:19:48 49° W 18:24:02 10° NNW
Cosmos 1980 Rocket 3.3 18:22:25 10° NNW 18:25:52 32° N 18:25:52 32° N
Cosmos 2333 Rocket 4.1 18:24:04 10° NW 18:27:52 18° N 18:27:52 18° N
Cosmos 1461 4.2 18:24:03 10° SW 18:27:07 41° SW 18:27:07 41° SW
Cosmos 1339 Rocket 4.4 18:24:44 10° S 18:31:03 88° WNW 18:32:11 63° N
ARGOS 3.3 18:34:45 69° W 18:34:45 69° W 18:40:04 10° NNW
COSMO-SKYMED 1 3.9 18:36:12 38° W 18:36:12 38° W 18:39:38 10° SW
CENTAUR R/B 2.5 18:31:35 10° SW 18:37:34 79° S 18:37:34 79° S
Cosmos 2237 Rocket 4.1 18:34:51 10° WNW 18:38:51 19° NNW 18:39:30 19° N
Cosmos 1943 4.0 18:38:41 10° WSW 18:44:08 45° NW 18:44:47 43° NNW
SL-16 R/B 3.9 18:40:50 10° NNW 18:43:31 22° N 18:43:31 22° N
Cosmos 1680 Rocket 4.4 18:46:25 10° SW 18:51:16 45° WNW 18:51:16 45° WNW
H-2A R/B 3.2 18:51:29 28° SW 18:53:27 39° W 18:58:11 10° NNW
NOSS 3-2 (C) 3.9 18:54:37 10° SW 18:59:03 55° WSW 18:59:03 55° WSW
CZ-4 R/B 4.5 19:18:47 11° WSW 19:20:14 13° W 19:22:11 10° NW
NOSS 3-2 (A) 4.3 19:17:29 10° WSW 19:21:59 48° WNW 19:21:59 48° WNW
Cosmos 2322 Rocket 4.3 19:20:40 10° NNW 19:22:22 18° NNW 19:22:22 18° NNW
Cosmos 1697 Rocket 4.4 19:25:07 10° NW 19:27:51 29° NW 19:27:51 29° NW
SL-16 R/B 4.4 19:31:07 10° WNW 19:34:12 19° NNW 19:34:12 19° NNW
